GBTWP-2 Weather Reports


time (UTC)temp
C
wind
direction
speed
KPH
gust
KPH
rain 1hr
cm
rain 24hr
cm
rain mn
cm
humidity
%
barometer
mb
20260502193501 8 265 1.6 3.2 0.00 0.00 0.00 49 1019.0
20260502192501 8 296 1.6 4.8 0.00 0.00 0.00 44 1019.2
20260502192002 8 310 1.6 3.2 0.00 0.00 0.00 42 1019.2
20260502191001 8 226 0.0 0.0 0.00 0.00 0.00 44 1019.4
20260502190502 9 317 3.2 4.8 0.00 0.00 0.00 49 1019.4
20260502184502 7 216 1.6 3.2 0.00 0.00 0.00 48 1019.4
20260502183502 7 219 3.2 4.8 0.00 0.00 0.00 49 1019.7
20260502183002 7 234 4.8 4.8 0.00 0.00 0.00 47 1019.8
20260502182502 7 325 1.6 3.2 0.00 0.00 0.00 51 1019.8
20260502182002 7 249 3.2 4.8 0.00 0.00 0.00 51 1019.8
20260502181501 7 206 3.2 4.8 0.00 0.00 0.00 49 1019.6
20260502181002 7 248 3.2 3.2 0.00 0.00 0.00 47 1019.6
20260502180501 7 305 3.2 4.8 0.00 0.00 0.00 51 1019.7
20260502170502 7 242 3.2 4.8 0.00 0.00 0.00 48 1020.1
20260502163002 6 15 0.0 0.0 0.00 0.00 0.00 48 1020.2
20260502162502 6 359 0.0 0.0 0.00 0.00 0.00 49 1020.4
20260502161502 7 345 3.2 4.8 0.00 0.00 0.00 49 1020.3
20260502161001 6 338 1.6 3.2 0.00 0.00 0.00 50 1020.4
20260502160502 6 348 1.6 3.2 0.00 0.00 0.00 50 1020.2
20260502152002 6 337 0.0 0.0 0.00 0.00 0.00 53 1020.3
20260502151001 6 322 1.6 3.2 0.00 0.00 0.00 49 1020.5
20260502150502 6 326 1.6 3.2 0.00 0.00 0.00 46 1020.4
20260502123501 4 335 0.0 0.0 0.00 0.00 0.00 68 1020.5
20260502123002 4 357 0.0 0.0 0.00 0.00 0.00 70 1020.5
20260502122501 3 357 0.0 0.0 0.00 0.00 0.00 71 1020.6
20260502120501 3 12 0.0 0.0 0.00 0.00 0.00 74 1020.6
20260502115002 3 36 0.0 0.0 0.00 0.00 0.00 76 1020.6
20260502114502 2 357 1.6 3.2 0.00 0.00 0.00 78 1020.6
20260502114001 2 5 0.0 0.0 0.00 0.00 0.00 78 1020.5
20260502112002 1 2 0.0 0.0 0.00 0.00 0.00 90 1020.3
20260502111501 0 2 0.0 0.0 0.00 0.00 0.00 92 1020.2
20260502110002 0 3 0.0 0.0 0.00 0.00 0.00 93 1020.2
20260502104001 0 3 0.0 0.0 0.00 0.00 0.00 93 1020.3
20260502103502 0 3 0.0 0.0 0.00 0.00 0.00 93 1020.1
20260502103001 0 3 0.0 0.0 0.00 0.00 0.00 93 1020.0
20260502102502 0 3 0.0 0.0 0.00 0.00 0.00 93 1020.1
20260502102002 0 3 0.0 0.0 0.00 0.00 0.00 93 1020.0
20260502101502 0 3 0.0 0.0 0.00 0.00 0.00 93 1020.0
20260502101002 0 3 0.0 0.0 0.00 0.00 0.00 93 1019.9
20260502091001 0 3 0.0 0.0 0.00 0.00 0.00 91 1019.6
20260502090502 0 3 0.0 0.0 0.00 0.00 0.00 90 1019.8
20260502071002 2 47 0.0 0.0 0.00 0.00 0.00 82 1019.3
20260502070502 2 47 0.0 0.0 0.00 0.00 0.00 82 1019.3
20260502065502 2 47 0.0 0.0 0.00 0.00 0.00 82 1019.5
20260502065001 2 47 0.0 0.0 0.00 0.00 0.00 82 1019.5
20260502062502 2 48 0.0 0.0 0.00 0.00 0.00 82 1019.6
20260502061502 2 53 0.0 0.0 0.00 0.00 0.00 82 1019.7
20260502061002 2 53 0.0 0.0 0.00 0.00 0.00 81 1019.8
20260502060501 2 51 0.0 0.0 0.00 0.00 0.00 82 1019.7
20260502060002 2 80 3.2 3.2 0.00 0.00 0.00 81 1019.8
20260502055501 2 44 0.0 0.0 0.00 0.00 0.00 82 1019.8
20260502054002 2 43 0.0 0.0 0.00 0.00 0.00 82 1020.0
20260502053502 2 85 4.8 4.8 0.00 0.00 0.00 82 1019.9
20260502052502 2 79 4.8 4.8 0.00 0.00 0.00 82 1019.8
20260502052001 2 54 1.6 3.2 0.00 0.00 0.00 81 1019.9
20260502045002 2 42 1.6 3.2 0.00 0.00 0.00 82 1019.6
20260502044502 2 80 1.6 3.2 0.00 0.00 0.00 82 1019.7
20260502044002 2 34 1.6 3.2 0.00 0.00 0.00 82 1019.6
20260502043501 3 75 6.4 6.4 0.00 0.00 0.00 81 1019.6
20260502043002 3 11 1.6 3.2 0.00 0.00 0.00 81 1019.6
20260502042501 3 48 1.6 3.2 0.00 0.00 0.00 81 1019.4
20260502042002 3 53 3.2 6.4 0.00 0.00 0.00 80 1019.5
20260502041001 3 75 3.2 4.8 0.00 0.00 0.00 79 1019.3
20260502040502 3 43 0.0 0.0 0.00 0.00 0.00 79 1019.3
20260502040001 3 44 0.0 0.0 0.00 0.00 0.00 78 1019.4
20260502035001 4 85 4.8 4.8 0.00 0.00 0.00 76 1019.3
20260502034502 4 38 0.0 0.0 0.00 0.00 0.00 75 1019.2
20260502033501 4 30 0.0 0.0 0.00 0.00 0.00 73 1019.4
20260502033002 4 37 0.0 0.0 0.00 0.00 0.00 77 1019.0
20260502032501 4 36 0.0 0.0 0.00 0.00 0.00 76 1019.0
20260502032002 4 37 0.0 0.0 0.00 0.00 0.00 74 1018.9
20260502031502 4 36 0.0 0.0 0.00 0.00 0.00 74 1018.9
20260502031002 4 38 0.0 0.0 0.00 0.00 0.00 72 1019.0
20260502030502 4 17 0.0 0.0 0.00 0.00 0.00 66 1018.8
20260502025502 5 9 0.0 0.0 0.00 0.00 0.00 66 1018.8
20260502025001 5 9 0.0 0.0 0.00 0.00 0.00 66 1018.9
20260502024502 5 9 0.0 0.0 0.00 0.00 0.00 65 1018.9
20260502023002 5 358 0.0 0.0 0.00 0.00 0.00 65 1018.8
20260502022502 5 2 0.0 0.0 0.00 0.00 0.00 64 1018.9
20260502022002 5 348 0.0 0.0 0.00 0.00 0.00 65 1018.8
20260502021501 5 10 1.6 3.2 0.00 0.00 0.00 64 1019.0
20260502021002 5 357 0.0 0.0 0.00 0.00 0.00 69 1018.8
20260502015502 5 357 0.0 0.0 0.00 0.00 0.00 69 1018.7
20260502013502 5 356 0.0 0.0 0.00 0.00 0.00 68 1018.5
20260502013001 5 348 0.0 0.0 0.00 0.00 0.00 68 1018.4
20260502012502 5 347 1.6 3.2 0.00 0.00 0.00 66 1018.4
20260502011502 5 95 1.6 4.8 0.00 0.00 0.00 65 1018.3
20260502011002 5 9 0.0 0.0 0.00 0.00 0.00 64 1018.3
20260502010501 5 324 1.6 3.2 0.00 0.00 0.00 64 1018.2
20260502010002 5 7 0.0 0.0 0.00 0.00 0.00 63 1018.3
20260502005501 6 304 1.6 3.2 0.00 0.00 0.00 62 1018.0
20260502005002 6 341 0.0 0.0 0.00 0.00 0.00 61 1018.0
20260502004002 6 350 0.0 0.0 0.00 0.00 0.00 61 1017.9
20260502003501 6 351 1.6 3.2 0.00 0.00 0.00 62 1018.0
20260502003002 6 125 1.6 3.2 0.00 0.00 0.00 60 1017.9
20260502002502 6 1 0.0 0.0 0.00 0.00 0.00 62 1018.0
20260502002002 6 6 0.0 0.0 0.00 0.00 0.00 62 1017.8
20260502001502 6 1 0.0 0.0 0.00 0.00 0.00 65 1017.8
20260502000502 6 35 1.6 3.2 0.00 0.00 0.00 64 1017.7
20260502000001 6 347 0.0 0.0 0.00 0.00 0.00 65 1017.7
20260501235502 6 347 0.0 0.0 0.00 0.00 0.00 63 1017.5
20260501235002 6 352 0.0 0.0 0.00 0.00 0.00 63 1017.6
20260501234502 6 351 0.0 0.0 0.00 0.00 0.00 63 1017.7
20260501233501 6 18 0.0 0.0 0.00 0.00 0.00 62 1017.7
20260501233002 6 346 1.6 3.2 0.00 0.00 0.00 62 1017.8
20260501232501 6 66 1.6 3.2 0.00 0.00 0.00 61 1017.8
20260501232002 7 348 1.6 3.2 0.00 0.00 0.00 62 1017.6
20260501231502 7 63 0.0 0.0 0.00 0.00 0.00 63 1017.7
20260501231001 7 359 0.0 0.0 0.00 0.00 0.00 62 1017.8
20260501230502 7 355 0.0 0.0 0.00 0.00 0.00 64 1017.6
20260501225502 7 349 0.0 0.0 0.00 0.00 0.00 61 1017.6
20260501224502 7 313 1.6 3.2 0.00 0.00 0.00 60 1017.6
20260501224002 7 336 1.6 3.2 0.00 0.00 0.00 58 1017.6
20260501223501 7 315 1.6 3.2 0.00 0.00 0.00 59 1017.6
20260501222501 7 356 0.0 0.0 0.00 0.00 0.00 59 1017.7
20260501221502 7 356 1.6 3.2 0.00 0.00 0.00 59 1017.6
20260501220502 7 321 1.6 3.2 0.00 0.00 0.00 61 1017.4
20260501220002 7 84 1.6 3.2 0.00 0.00 0.00 59 1017.6
20260501215502 7 335 1.6 3.2 0.00 0.00 0.00 61 1017.4
20260501213502 7 304 1.6 3.2 0.00 0.00 0.00 59 1017.2
20260501213001 7 341 0.0 0.0 0.00 0.00 0.00 57 1017.4
20260501212502 7 258 3.2 4.8 0.00 0.00 0.00 56 1017.4
20260501212002 7 51 1.6 3.2 0.00 0.00 0.00 56 1017.0
20260501211502 7 325 0.0 0.0 0.00 0.00 0.00 58 1017.1
20260501205501 7 344 1.6 4.8 0.00 0.00 0.00 59 1016.8
20260501205002 7 347 0.0 0.0 0.00 0.00 0.00 59 1017.0
20260501204003 7 356 0.0 0.0 0.00 0.00 0.00 59 1017.0
20260501203501 7 345 1.6 4.8 0.00 0.00 0.00 59 1017.1
20260501202502 7 331 0.0 0.0 0.00 0.00 0.00 58 1017.0
20260501202002 7 353 3.2 4.8 0.00 0.00 0.00 57 1017.0
20260501201002 8 357 0.0 0.0 0.00 0.00 0.00 54 1017.0